Weather History for CXYH - May, 2013

Change the Weather History Date:

Monday, May 13, 2013

  Actual Average Record
Temperature  
Mean Temperature 49 °F -  
Max Temperature 67 °F - - ()
Min Temperature 31 °F - - ()
Degree Days  
Heating Degree Days 16    
Moisture  
Dew Point 33 °F    
Average Humidity 54    
Maximum Humidity 94    
Minimum Humidity 15    
Precipitation  
Precipitation 0.00 in - - ()
Sea Level Pressure  
Sea Level Pressure 29.42 in    
Wind  
Wind Speed 2 mph ()    
Max Wind Speed 7 mph    
Max Gust Speed -    
T = Trace of Precipitation, MM = Missing Value Source: Averaged Metar Reports

Daily Weather History Graph

Daily Weather History Graph

Search for Another Location

Airport or City:

Trip Planner

Search our weather history database for the weather conditions in past years. The results will help you decide how hot, cold, wet, or windy it might be!

Date:

Astronomy

May. 13, 2013 Rise Set
Actual Time 5:31 AM MDT 10:52 PM MDT
Civil Twilight 4:23 AM MDT 12:02 AM MDT
Nautical Twilight 2:43 AM MDT 1:38 AM MDT
Astronomical Twilight Sun does not set Sun does not set
Moon 8:16 AM MDT (5/13) 1:28 AM MDT (5/13)
Length of Visible Light 19h 38m
Length of Day
17h 20m
Waxing Crescent, 12% of the Moon is Illuminated
May 13
Waxing Crescent
May 17
First Quarter
May 24
Full
May 31
Last Quarter
Jun 8
New

Hourly Weather History & Observations

Time (MDT) Temp. Dew Point Humidity Pressure Visibility Wind Dir Wind Speed Gust Speed Precip Events Conditions
12:00 AM 48 °F 36 °F 52% 29.38 in - NW 2.3 mph - -  
12:00 AM 48.2 °F 35.8 °F 62% 29.38 in - NW 2.3 mph - N/A   Unknown
1:00 AM 45.9 °F 37.4 °F 72% 29.40 in - NNW 1.2 mph - N/A   Unknown
2:00 AM 43.7 °F 37.0 °F 77% 29.42 in - NNW 1.2 mph - N/A   Unknown
3:00 AM 41.2 °F 36.0 °F 82% 29.43 in - NNE 1.2 mph - N/A   Unknown
4:00 AM 37.8 °F 33.1 °F 83% 29.45 in - Calm Calm - N/A   Unknown
5:00 AM 33.4 °F 30.9 °F 90% 29.46 in - Calm Calm - N/A   Unknown
6:00 AM 32 °F 30 °F 91% 29.47 in - NNW 1.2 mph - -  
6:00 AM 31.8 °F 30.4 °F 94% 29.47 in - NNW 1.2 mph - N/A   Unknown
7:00 AM 37.4 °F 33.1 °F 84% 29.47 in - NNW 1.2 mph - N/A   Unknown
8:00 AM 41.0 °F 33.3 °F 74% 29.47 in - South 2.3 mph - N/A   Unknown
9:00 AM 45.9 °F 33.8 °F 63% 29.47 in - SSE 2.3 mph - N/A   Unknown
10:00 AM 49.5 °F 33.1 °F 53% 29.46 in - South 6.9 mph - N/A   Unknown
11:00 AM 52.9 °F 34.0 °F 49% 29.45 in - SSE 5.8 mph - N/A   Unknown
12:00 PM 55 °F 34 °F 33% 29.44 in - South 4.6 mph - -  
12:00 PM 55.4 °F 34.3 °F 45% 29.44 in - South 4.6 mph - N/A   Unknown
1:00 PM 59.7 °F 34.7 °F 39% 29.43 in - SSW 4.6 mph - N/A   Unknown
3:00 PM 63.3 °F 34.3 °F 34% 29.40 in - SSE 4.6 mph - N/A   Unknown
4:00 PM 63.1 °F 34.3 °F 34% 29.39 in - South 5.8 mph - N/A   Unknown
6:00 PM 67 °F 30 °F 15% 29.37 in - SSW 6.9 mph - -  
6:00 PM 66.7 °F 30.2 °F 26% 29.37 in - SSW 6.9 mph - N/A   Unknown
7:00 PM 64.4 °F 31.8 °F 30% 29.37 in - West 2.3 mph - N/A   Unknown
8:00 PM 62.8 °F 29.5 °F 29% 29.37 in - SW 3.5 mph - N/A   Unknown
9:00 PM 61.7 °F 33.4 °F 35% 29.38 in - SW 1.2 mph - N/A   Unknown
10:00 PM 63.1 °F 28.9 °F 28% 29.39 in - WSW 4.6 mph - N/A   Unknown
11:00 PM 58.8 °F 27.5 °F 30% 29.39 in - West 2.3 mph - N/A   Unknown